Location: Unspecified
(17.6330°N, 0.0000°E)
Time: 02:22:51
(UTC+00:00)

SO-50 - Visible Passes

Search period start: 17 July 2019 00:00
Search period end: 27 July 2019 00:00
Orbit: 587 x 700 km, 64.6° (Epoch: 16 July)

Date Brightness Start Highest point End Pass type
(mag) Time Alt. Az. Time Alt. Az. Time Alt. Az.
17 Jul ? 02:03:50 12° NE 02:03:50 12° NE 02:04:09 10° NE visible
17 Jul ? 03:41:29 12° NW 03:41:29 12° NW 03:42:24 10° NNW visible
18 Jul ? 02:28:28 15° NNE 02:28:28 15° NNE 02:29:23 10° NNE visible
19 Jul ? 02:53:03 11° NNW 02:53:03 11° NNW 02:53:24 10° NNW visible
